Theta_e
338 338 335 335 340 332 339 337 330 320 323 329 331 340 340 342 338 339 337 326 326 324 323 325 324 326 327 327 328 328 328 328 328 328 328 327 328 330
338 337 336 334 338 335 341 340 338 330 322 333 334 338 341 340 336 341 339 329 324 323 322 322 322 322 323 323 323 324 325 325 325 326 327 328 329 329
336 333 334 336 337 338 339 338 329 329 326 330 333 335 335 336 338 339 337 333 327 322 322 321 319 319 319 319 320 321 322 323 323 324 325 326 326 326
333 331 329 332 334 337 340 336 337 338 330 326 326 324 326 328 330 329 330 330 328 322 320 318 316 315 315 316 316 317 317 318 320 321 321 322 322 323
333 329 326 329 329 335 337 332 337 336 336 326 320 322 322 323 321 323 324 324 324 322 318 316 315 315 315 314 314 313 313 313 313 314 317 318 319 320
328 327 326 327 330 331 332 335 335 331 329 322 320 319 319 320 321 317 316 320 318 320 319 317 316 315 314 314 314 314 311 309 309 310 310 310 311 313
327 325 327 326 323 323 337 335 335 330 326 320 318 316 315 316 315 317 314 314 316 316 316 315 316 318 318 316 318 315 310 309 308 308 307 306 306 307
325 325 327 323 323 316 315 317 330 331 323 320 317 315 315 315 316 315 313 312 307 317 314 314 320 320 322 322 316 309 307 307 307 307 306 304 304 304
327 327 327 330 326 331 316 315 315 314 321 327 320 317 315 318 317 317 321 319 313 313 314 310 317 318 323 315 307 306 305 305 305 304 304 303 302 301
326 327 325 329 330 331 331 332 331 331 330 329 326 321 322 322 321 321 319 315 314 315 318 308 314 317 320 319 306 305 304 303 303 303 303 302 300 299
327 326 325 327 309 306 331 328 326 324 310 310 311 306 304 307 315 320 314 312 309 311 315 313 314 314 316 320 315 305 303 302 302 302 302 301 300 299
326 323 310 319 303 304 329 328 324 320 320 319 314 310 313 309 308 322 316 312 312 310 317 316 319 318 314 321 320 313 310 301 300 300 300 300 299 305
321 319 316 300 299 305 312 331 323 322 315 322 320 319 318 317 320 320 320 318 315 316 321 324 321 319 319 317 319 318 314 313 309 305 298 299 298 300
323 319 311 298 299 302 314 302 304 313 323 320 318 316 316 317 320 318 322 320 326 327 328 329 322 321 319 318 315 320 320 320 318 314 314 305 297 297
321 304 296 295 297 302 299 302 306 323 322 318 317 317 318 319 322 317 318 323 330 328 328 328 325 326 322 322 321 319 318 321 323 322 321 320 315 307
305 310 304 304 303 308 311 311 324 323 321 320 318 319 320 319 318 317 316 323 325 323 327 327 328 328 320 324 325 324 322 319 325 325 324 324 324 323
315 318 316 313 311 313 319 321 324 323 321 321 321 319 321 319 319 320 320 324 323 321 319 321 326 330 328 329 323 324 325 327 328 328 327 324 325 326
319 318 315 314 313 315 317 318 321 318 321 321 321 321 320 320 321 322 323 324 322 320 319 321 322 320 322 325 321 326 328 328 330 332 332 327 327 331
320 320 316 316 317 317 317 318 318 320 322 321 323 323 324 324 320 323 323 322 321 320 322 322 320 319 317 316 324 316 328 329 329 329 329 329 328 330
323 321 318 318 318 318 319 318 320 321 321 324 324 324 325 323 322 323 323 323 322 322 321 324 323 324 321 320 322 327 300 332 329 328 327 328 327 304
325 324 323 322 321 321 322 323 323 325 325 326 327 326 326 323 323 324 324 305 310 321 319 321 325 304 331 331 325 325 329 301 316 328 328 326 325 327
322 325 327 327 325 325 326 326 326 324 327 326 327 327 327 327 325 325 325 322 321 320 321 325 330 329 329 326 325 327 328 331 313 305 303 308 322 320
326 324 327 329 329 327 327 326 326 327 327 327 328 329 329 327 328 327 325 324 323 324 325 324 326 328 327 327 320 327 329 329 327 326 328 305 301 301
Wind_Speed
7 5 6 1 2 6 4 5 4 5 5 4 4 6 5 5 6 8 10 11 13 17 17 20 18 15 14 12 13 15 15 16 14 13 13 13 12 9
3 6 5 4 4 4 3 4 4 5 5 2 2 6 6 4 4 7 8 13 15 19 18 15 18 15 13 13 14 15 14 13 12 11 11 10 10 14
5 2 4 6 4 5 4 4 5 5 6 3 3 4 6 7 7 9 9 9 10 21 23 18 16 14 15 15 15 15 13 12 11 10 9 12 12 12
7 4 4 2 5 6 5 6 3 4 8 10 4 3 4 6 7 7 6 6 9 17 20 18 17 16 16 15 15 14 13 12 11 10 11 12 11 11
6 5 1 4 4 6 7 6 4 3 8 8 4 2 4 3 8 8 8 10 7 20 18 17 17 15 15 15 12 12 12 11 11 10 10 10 9 10
6 5 3 5 4 4 7 7 6 6 8 8 6 4 3 3 6 9 9 8 8 8 11 11 14 14 12 12 12 11 10 10 10 9 9 8 9 8
6 5 6 6 6 7 5 6 9 7 9 8 5 5 6 3 7 7 11 10 8 7 9 7 8 5 5 5 9 9 9 8 9 9 9 8 7 7
5 4 4 6 7 6 1 4 9 12 11 8 7 8 7 8 8 10 12 11 5 3 8 5 3 5 8 5 9 9 7 8 9 9 8 7 7 8
6 4 3 3 3 8 6 4 10 9 13 11 13 9 10 11 10 12 13 12 8 4 10 5 1 6 4 5 6 7 7 9 9 8 7 8 8 8
6 4 4 4 6 8 10 10 10 10 10 9 10 10 11 11 10 10 9 11 10 5 5 4 4 7 7 5 5 6 7 7 7 8 9 9 8 9
6 5 4 4 4 3 11 11 10 9 11 13 14 13 11 12 10 11 11 12 8 4 2 4 6 3 5 7 7 8 8 7 9 9 8 10 9 8
6 5 6 3 5 1 7 11 11 9 12 11 9 10 8 9 8 8 11 11 9 6 4 5 8 8 7 7 8 8 7 10 8 10 10 10 10 8
5 3 3 8 6 5 7 9 12 12 12 11 10 8 7 6 4 6 4 9 9 3 9 8 8 9 6 7 6 7 8 8 9 9 12 12 13 14
7 4 4 7 8 9 8 15 15 12 10 9 8 8 8 6 5 3 8 5 3 7 13 10 8 8 6 5 5 8 8 8 9 10 10 12 19 19
6 7 11 10 10 10 13 15 12 8 8 8 7 7 7 6 8 4 3 5 3 5 10 7 5 5 5 6 5 7 7 9 9 9 9 10 10 11
10 6 9 10 9 8 8 8 6 7 7 8 9 7 9 8 7 4 2 5 5 6 9 8 4 5 6 7 6 5 8 7 9 9 9 9 9 10
10 7 6 5 5 5 5 3 6 8 8 7 8 8 8 10 8 6 5 7 6 6 6 6 8 7 7 7 7 8 7 7 8 9 10 9 10 10
7 7 7 6 7 6 5 5 7 6 7 7 8 8 9 8 8 10 9 9 8 5 7 8 8 8 8 9 11 9 8 8 8 9 10 10 10 10
6 8 7 6 7 6 6 6 7 6 8 7 10 9 10 9 9 9 8 9 8 7 6 9 10 10 9 10 7 23 11 9 8 8 9 10 11 10
6 8 9 6 6 6 7 6 7 7 7 8 10 9 9 7 8 8 10 9 9 9 9 9 8 9 10 10 9 6 20 9 7 8 10 10 11 3
4 6 10 8 7 7 9 10 11 10 9 8 9 10 9 7 9 10 10 7 7 9 10 9 9 12 8 8 10 10 8 21 13 11 10 10 11 11
5 3 6 9 9 10 8 8 8 7 8 7 8 9 9 8 12 12 10 10 11 10 10 9 9 8 8 10 11 13 10 9 15 23 19 13 11 13
9 7 6 7 8 8 7 5 5 6 6 7 8 9 10 10 11 11 11 11 11 10 11 10 9 9 10 11 11 10 14 12 10 12 9 23 26 25
Wind_Direction
201 208 237 220 274 238 192 208 200 174 159 176 140 175 154 172 139 168 146 139 139 135 134 141 135 144 152 149 139 136 138 140 147 152 161 168 172 170
252 196 203 221 232 237 221 218 208 249 134 140 111 144 143 128 101 147 135 134 135 130 125 134 136 136 126 132 131 130 136 133 136 151 161 163 151 146
202 213 215 222 215 226 195 220 159 168 124 115 91 99 80 118 118 108 139 128 134 134 134 136 125 124 128 129 125 126 128 130 142 154 157 144 141 145
193 197 248 203 232 211 205 182 208 187 162 143 104 85 76 71 79 81 97 112 134 136 131 128 125 128 125 126 129 132 129 136 143 145 140 142 149 154
170 180 201 284 215 211 204 176 187 170 143 135 123 83 76 87 85 79 86 94 102 129 108 111 114 116 121 124 126 126 129 142 145 140 145 150 156 162
125 151 228 253 255 228 180 180 157 147 130 128 114 96 91 84 101 108 92 93 98 96 95 109 110 93 98 113 123 127 142 142 142 146 145 152 172 168
154 166 208 234 269 280 193 167 164 149 134 129 126 118 124 125 117 115 101 99 83 103 109 100 107 94 97 120 111 141 148 144 146 152 163 174 173 161
166 188 184 224 232 222 346 324 166 140 144 142 142 140 129 122 132 130 126 126 107 86 108 99 135 147 151 168 150 139 147 149 157 166 170 172 174 179
167 190 167 194 227 169 109 139 97 96 148 154 148 146 142 149 139 142 144 137 125 135 116 95 68 138 182 114 100 133 157 160 171 172 175 182 189 192
150 148 151 189 188 187 162 151 143 138 146 139 140 146 143 146 144 130 114 100 104 114 118 121 167 169 196 128 141 165 170 177 171 184 194 195 194 205
135 139 142 148 178 291 155 143 100 83 73 106 118 121 119 125 131 123 126 132 132 139 206 120 184 144 191 183 169 187 195 186 198 201 203 204 207 212
124 126 115 132 163 27 158 132 119 116 113 104 103 101 104 116 145 135 146 141 141 134 196 172 177 172 193 197 175 183 202 214 207 210 213 213 202 235
134 127 115 132 129 93 114 131 120 119 113 116 121 127 125 118 98 138 161 148 149 166 172 203 187 190 215 158 193 182 205 202 212 216 225 222 211 221
137 127 119 133 129 95 113 120 121 128 131 129 130 131 136 145 139 121 143 138 254 254 170 212 192 193 214 165 187 190 202 217 199 227 223 208 212 219
102 99 108 107 99 87 125 127 138 136 136 136 135 137 140 153 125 106 82 234 167 123 152 210 236 171 221 262 197 169 194 211 218 229 224 228 210 209
104 92 96 87 79 111 132 153 136 132 141 138 145 151 129 143 146 146 184 222 206 145 180 201 233 190 228 254 276 203 187 237 187 218 232 243 243 240
119 117 107 103 112 121 141 199 131 141 148 144 133 150 146 156 152 170 198 222 228 173 180 204 238 245 241 261 253 247 259 230 224 228 209 236 242 244
128 122 118 125 136 138 132 125 135 142 137 146 150 151 155 163 168 178 202 213 217 192 181 190 198 223 230 237 229 258 265 258 254 244 239 250 254 246
133 126 124 131 134 135 138 137 145 145 148 167 162 179 167 182 180 190 197 200 201 233 225 183 198 215 236 244 237 206 226 241 248 249 254 256 264 263
148 146 144 145 146 144 150 153 164 164 178 191 171 182 185 180 189 203 206 211 214 212 226 230 218 220 233 253 271 296 211 241 264 271 270 276 280 255
185 160 151 154 156 170 174 178 179 187 189 190 178 180 173 182 206 216 217 212 223 230 232 233 232 225 235 239 254 260 265 222 240 254 263 266 272 279
193 224 161 160 168 187 179 196 188 181 175 179 181 187 188 205 210 215 223 210 212 235 245 250 243 216 225 238 251 260 264 266 221 240 243 243 263 269
180 197 204 173 179 179 161 165 164 182 182 201 200 201 193 211 236 229 213 233 252 228 221 240 254 260 265 265 262 262 254 260 266 270 255 224 236 247